,,PA_Meas_PMT16A,,PR_Meas_QMR101_102,,RH_Meas_QMH101,,SR_Meas_QMS101,,TA_Meas_QMH101,,GenWind,,GenWind,
time,status,PA,status,PR,status,RH,status,SR,status,TA,status,DirAvg,status,SpdAvg,
2010-09-28, 00:00:04,VALID,918.65,VALID,0,VALID,96.4438,VALID,0,VALID,20.4439,VALID,334,VALID,0.548828,
2010-09-28, 00:01:04,VALID,918.65,VALID,0,VALID,96.4591,VALID,0,VALID,20.4439,VALID,334,VALID,0.548437,
2010-09-28, 00:02:04,VALID,918.657,VALID,0,VALID,96.4896,VALID,0,VALID,20.4228,VALID,335,VALID,0.730078,
2010-09-28, 00:03:04,VALID,918.649,VALID,0,VALID,96.5124,VALID,0,VALID,20.4228,VALID,334,VALID,0.557813,
2010-09-28, 00:04:04,VALID,918.614,VALID,0,VALID,96.5658,VALID,0,VALID,20.4033,VALID,334,VALID,0.561719,
2010-09-28, 00:05:04,VALID,918.619,VALID,0,VALID,96.5506,VALID,0,VALID,20.4033,VALID,334,VALID,0.569922,
2010-09-28, 00:06:04,VALID,918.629,VALID,0,VALID,96.5811,VALID,0,VALID,20.4049,VALID,334,VALID,0.548828,
2010-09-28, 00:07:04,VALID,918.619,VALID,0,VALID,96.6192,VALID,0,VALID,20.4244,VALID,334,VALID,0.289844,
2010-09-28, 00:08:04,VALID,918.6,VALID,0,VALID,96.6268,VALID,0,VALID,20.4244,VALID,334,VALID,0.173047,
2010-09-28, 00:09:04,VALID,918.606,VALID,0,VALID,96.6573,VALID,0,VALID,20.4244,VALID,334,VALID,0.373828,
2010-09-28, 00:10:04,VALID,918.619,VALID,0,VALID,96.6649,VALID,0,VALID,20.4244,VALID,335,VALID,0.188281,
2010-09-28, 00:11:04,VALID,918.626,VALID,0,VALID,96.6954,VALID,0,VALID,20.4244,VALID,334,VALID,0,
2010-09-28, 00:12:04,VALID,918.645,VALID,0,VALID,96.6954,VALID,0,VALID,20.4423,VALID,335,VALID,0.239844,
2010-09-28, 00:13:04,VALID,918.615,VALID,0,VALID,96.7107,VALID,0,VALID,20.4423,VALID,334,VALID,0.172266,
2010-09-28, 00:14:04,VALID,918.595,VALID,0,VALID,96.7716,VALID,0.107441,VALID,20.4603,VALID,334,VALID,0.264844,
2010-09-28, 00:15:04,VALID,918.596,VALID,0,VALID,96.7793,VALID,0,VALID,20.5204,VALID,334,VALID,0.3875,
2010-09-28, 00:16:04,VALID,918.571,VALID,0,VALID,96.7183,VALID,0,VALID,20.4813,VALID,334,VALID,0.451562,
2010-09-28, 00:17:04,VALID,918.575,VALID,0,VALID,96.7793,VALID,0,VALID,20.5009,VALID,335,VALID,0.619141,
2010-09-28, 00:18:04,VALID,918.566,VALID,0,VALID,96.764,VALID,0,VALID,20.5009,VALID,334,VALID,0.744531,
2010-09-28, 00:19:04,VALID,918.521,VALID,0,VALID,96.7411,VALID,0,VALID,20.5009,VALID,334,VALID,0.894531,
2010-09-28, 00:20:04,VALID,918.49,VALID,0,VALID,96.7564,VALID,0,VALID,20.4798,VALID,334,VALID,0.767969,
2010-09-28, 00:21:04,VALID,918.473,VALID,0,VALID,96.7488,VALID,0,VALID,20.4798,VALID,335,VALID,0.749219,
2010-09-28, 00:22:04,VALID,918.441,VALID,0,VALID,96.8021,VALID,0,VALID,20.5204,VALID,334,VALID,0.421875,
2010-09-28, 00:23:04,VALID,918.457,VALID,0,VALID,96.825,VALID,0,VALID,20.4993,VALID,334,VALID,0.491797,
2010-09-28, 00:24:04,VALID,918.461,VALID,0,VALID,96.8098,VALID,0,VALID,20.5399,VALID,335,VALID,0.510156,
2010-09-28, 00:25:04,VALID,918.439,VALID,0,VALID,96.8174,VALID,0,VALID,20.5399,VALID,335,VALID,0.358984,
2010-09-28, 00:26:04,VALID,918.438,VALID,0,VALID,96.8174,VALID,0,VALID,20.5594,VALID,335,VALID,0.600391,
2010-09-28, 00:27:04,VALID,918.472,VALID,0,VALID,96.7945,VALID,0,VALID,20.5383,VALID,334,VALID,0.496484,
2010-09-28, 00:28:04,VALID,918.494,VALID,0,VALID,96.8098,VALID,0,VALID,20.5594,VALID,335,VALID,0.489453,
2010-09-28, 00:29:04,VALID,918.512,VALID,0,VALID,96.7945,VALID,0,VALID,20.5578,VALID,334,VALID,0.36875,
2010-09-28, 00:30:04,VALID,918.513,VALID,0,VALID,96.7945,VALID,0,VALID,20.5578,VALID,335,VALID,0.245312,
2010-09-28, 00:31:04,VALID,918.524,VALID,0,VALID,96.7793,VALID,0,VALID,20.5594,VALID,335,VALID,0.06875,
2010-09-28, 00:32:04,VALID,918.528,VALID,0,VALID,96.764,VALID,0,VALID,20.5789,VALID,335,VALID,0,
2010-09-28, 00:33:04,VALID,918.538,VALID,0,VALID,96.7564,VALID,0,VALID,20.5789,VALID,335,VALID,0,
2010-09-28, 00:34:04,VALID,918.533,VALID,0,VALID,96.8021,VALID,0,VALID,20.5984,VALID,335,VALID,0,
2010-09-28, 00:35:04,VALID,918.544,VALID,0,VALID,96.8174,VALID,0,VALID,20.6179,VALID,335,VALID,0.280078,
2010-09-28, 00:36:04,VALID,918.539,VALID,0,VALID,96.7869,VALID,0,VALID,20.6569,VALID,335,VALID,0.0519531,
2010-09-28, 00:37:04,VALID,918.517,VALID,0,VALID,96.8174,VALID,0,VALID,20.6569,VALID,335,VALID,0.328516,
2010-09-28, 00:38:04,VALID,918.532,VALID,0,VALID,96.6039,VALID,0,VALID,20.5984,VALID,335,VALID,0.610937,
2010-09-28, 00:39:04,VALID,918.491,VALID,0,VALID,96.5658,VALID,0.107441,VALID,20.5594,VALID,335,VALID,0.609766,
2010-09-28, 00:40:04,VALID,918.495,VALID,0,VALID,96.5658,VALID,0.107441,VALID,20.5188,VALID,335,VALID,0.660547,
2010-09-28, 00:41:04,VALID,918.501,VALID,0,VALID,96.5734,VALID,0.107441,VALID,20.4993,VALID,335,VALID,0.682422,
2010-09-28, 00:42:04,VALID,918.515,VALID,0,VALID,96.6039,VALID,0,VALID,20.4798,VALID,335,VALID,0.619141,
2010-09-28, 00:43:04,VALID,918.526,VALID,0,VALID,96.5811,VALID,0.107441,VALID,20.4798,VALID,335,VALID,0.573438,
2010-09-28, 00:44:04,VALID,918.514,VALID,0,VALID,96.6192,VALID,0,VALID,20.4813,VALID,335,VALID,0.648828,
2010-09-28, 00:45:04,VALID,918.49,VALID,0,VALID,96.6497,VALID,0.107441,VALID,20.4408,VALID,335,VALID,0.404297,
2010-09-28, 00:46:04,VALID,918.471,VALID,0,VALID,96.7183,VALID,0,VALID,20.5009,VALID,335,VALID,0.70625,
2010-09-28, 00:47:04,VALID,918.466,VALID,0,VALID,96.5963,VALID,0,VALID,20.4813,VALID,335,VALID,0.953516,
2010-09-28, 00:48:04,VALID,918.437,VALID,0,VALID,96.5734,VALID,0,VALID,20.4423,VALID,335,VALID,0.879687,
2010-09-28, 00:49:04,VALID,918.407,VALID,0,VALID,96.6344,VALID,0,VALID,20.4423,VALID,335,VALID,0.617969,
2010-09-28, 00:50:04,VALID,918.406,VALID,0,VALID,96.6878,VALID,0,VALID,20.4423,VALID,335,VALID,0.459375,
2010-09-28, 00:51:04,VALID,918.384,VALID,0,VALID,96.6344,VALID,0,VALID,20.4213,VALID,335,VALID,0.425391,
2010-09-28, 00:52:04,VALID,918.37,VALID,0,VALID,96.703,VALID,0,VALID,20.4618,VALID,335,VALID,0.317187,
2010-09-28, 00:53:04,VALID,918.376,VALID,0,VALID,96.6725,VALID,0,VALID,20.4408,VALID,335,VALID,0.458984,
2010-09-28, 00:54:04,VALID,918.357,VALID,0,VALID,96.642,VALID,0,VALID,20.4618,VALID,335,VALID,0.373828,
2010-09-28, 00:55:04,VALID,918.351,VALID,0,VALID,96.7183,VALID,0,VALID,20.4813,VALID,335,VALID,0.538672,
2010-09-28, 00:56:04,VALID,918.34,VALID,0,VALID,96.6268,VALID,0,VALID,20.4813,VALID,335,VALID,0.664844,
2010-09-28, 00:57:04,VALID,918.352,VALID,0,VALID,96.6344,VALID,0,VALID,20.4618,VALID,335,VALID,0.332422,
2010-09-28, 00:58:04,VALID,918.32,VALID,0,VALID,96.6268,VALID,0,VALID,20.4423,VALID,335,VALID,0.659375,
2010-09-28, 00:59:04,VALID,918.283,VALID,0,VALID,96.5887,VALID,0,VALID,20.4423,VALID,335,VALID,0.666406,
2010-09-28, 01:00:04,VALID,918.254,VALID,0,VALID,96.5048,VALID,0,VALID,20.4033,VALID,18,VALID,1.09727,
2010-09-28, 01:01:04,VALID,918.226,VALID,0,VALID,96.4591,VALID,0,VALID,20.3643,VALID,18,VALID,1.00664,
2010-09-28, 01:02:04,VALID,918.205,VALID,0,VALID,96.5353,VALID,0,VALID,20.3448,VALID,18,VALID,0.661719,
2010-09-28, 01:03:04,VALID,918.192,VALID,0,VALID,96.5658,VALID,0,VALID,20.3448,VALID,18,VALID,0.299609,
2010-09-28, 01:04:04,VALID,918.171,VALID,0,VALID,96.5506,VALID,0,VALID,20.3448,VALID,17,VALID,0.469531,
2010-09-28, 01:05:04,VALID,918.156,VALID,0,VALID,96.5582,VALID,0,VALID,20.3253,VALID,18,VALID,0.729688,
2010-09-28, 01:06:04,VALID,918.167,VALID,0,VALID,96.6039,VALID,0,VALID,20.3464,VALID,17,VALID,0.577344,
2010-09-28, 01:07:04,VALID,918.126,VALID,0,VALID,96.5887,VALID,0,VALID,20.3253,VALID,18,VALID,0.388281,
2010-09-28, 01:08:04,VALID,918.139,VALID,0,VALID,96.5811,VALID,0,VALID,20.3269,VALID,18,VALID,0.589063,
2010-09-28, 01:09:04,VALID,918.111,VALID,0,VALID,96.5887,VALID,0,VALID,20.3074,VALID,18,VALID,0.451172,
2010-09-28, 01:10:04,VALID,918.073,VALID,0,VALID,96.6115,VALID,0,VALID,20.3074,VALID,18,VALID,0.325,
2010-09-28, 01:11:04,VALID,918.062,VALID,0,VALID,96.6039,VALID,0,VALID,20.2863,VALID,17,VALID,0.417578,
2010-09-28, 01:12:04,VALID,918.01,VALID,0,VALID,96.6573,VALID,0,VALID,20.3058,VALID,18,VALID,0.324609,
2010-09-28, 01:13:04,VALID,918.01,VALID,0,VALID,96.6725,VALID,0,VALID,20.3269,VALID,17,VALID,0.00273437,
2010-09-28, 01:14:04,VALID,917.988,VALID,0,VALID,96.6802,VALID,0,VALID,20.3448,VALID,18,VALID,0.564844,
2010-09-28, 01:15:04,VALID,917.982,VALID,0,VALID,96.7183,VALID,0,VALID,20.3659,VALID,18,VALID,0.898047,
2010-09-28, 01:16:04,VALID,917.942,VALID,0,VALID,96.7259,VALID,0,VALID,20.3643,VALID,18,VALID,0.694141,
2010-09-28, 01:17:04,VALID,917.931,VALID,0,VALID,96.7488,VALID,0,VALID,20.4049,VALID,18,VALID,0.400781,
2010-09-28, 01:18:04,VALID,917.903,VALID,0,VALID,96.7488,VALID,0,VALID,20.3838,VALID,18,VALID,0.411719,
2010-09-28, 01:19:04,VALID,917.894,VALID,0,VALID,96.7183,VALID,0,VALID,20.4244,VALID,18,VALID,0.447656,
2010-09-28, 01:20:04,VALID,917.881,VALID,0,VALID,96.642,VALID,0,VALID,20.3854,VALID,17,VALID,0.832031,
2010-09-28, 01:21:04,VALID,917.835,VALID,0,VALID,96.5811,VALID,0,VALID,20.3269,VALID,18,VALID,0.812891,
2010-09-28, 01:22:04,VALID,917.854,VALID,0,VALID,96.5429,VALID,0,VALID,20.3074,VALID,18,VALID,0.760938,
2010-09-28, 01:23:04,VALID,917.817,VALID,0,VALID,96.5582,VALID,0,VALID,20.2668,VALID,18,VALID,0.876562,
2010-09-28, 01:24:04,VALID,917.802,VALID,0,VALID,96.5887,VALID,0,VALID,20.2458,VALID,18,VALID,0.710156,
2010-09-28, 01:25:04,VALID,917.788,VALID,0,VALID,96.642,VALID,0,VALID,20.2458,VALID,18,VALID,0.789844,
2010-09-28, 01:26:04,VALID,917.786,VALID,0,VALID,96.7259,VALID,0.107441,VALID,20.2653,VALID,17,VALID,0.540625,
2010-09-28, 01:27:04,VALID,917.769,VALID,0,VALID,96.6573,VALID,0.107441,VALID,20.2458,VALID,18,VALID,0.388281,
2010-09-28, 01:28:04,VALID,917.795,VALID,0,VALID,96.642,VALID,0,VALID,20.2458,VALID,17,VALID,0.258203,
2010-09-28, 01:29:04,VALID,917.788,VALID,0,VALID,96.6344,VALID,0,VALID,20.2263,VALID,17,VALID,0.240234,
2010-09-28, 01:30:04,VALID,917.766,VALID,0,VALID,96.5887,VALID,0,VALID,20.2068,VALID,18,VALID,0.457031,
2010-09-28, 01:31:04,VALID,917.751,VALID,0,VALID,96.6192,VALID,0,VALID,20.2083,VALID,17,VALID,0.125391,
2010-09-28, 01:32:04,VALID,917.735,VALID,0,VALID,96.6192,VALID,0.107441,VALID,20.1873,VALID,17,VALID,0.0894531,
2010-09-28, 01:33:04,VALID,917.708,VALID,0,VALID,96.5658,VALID,0,VALID,20.1678,VALID,17,VALID,0.148828,
2010-09-28, 01:34:04,VALID,917.714,VALID,0,VALID,96.6268,VALID,0.107441,VALID,20.1873,VALID,17,VALID,0.267188,
2010-09-28, 01:35:04,VALID,917.703,VALID,0,VALID,96.6497,VALID,0,VALID,20.2083,VALID,18,VALID,0.342187,
2010-09-28, 01:36:04,VALID,917.708,VALID,0,VALID,96.6573,VALID,0,VALID,20.2083,VALID,17,VALID,0.814844,
2010-09-28, 01:37:04,VALID,917.64,VALID,0,VALID,96.6115,VALID,0.107441,VALID,20.2278,VALID,17,VALID,0.567969,
2010-09-28, 01:38:04,VALID,917.631,VALID,0,VALID,96.6192,VALID,0.107441,VALID,20.2068,VALID,17,VALID,0.614453,
2010-09-28, 01:39:04,VALID,917.599,VALID,0,VALID,96.5963,VALID,0,VALID,20.2278,VALID,2,VALID,0.8375,
2010-09-28, 01:40:04,VALID,917.595,VALID,0,VALID,96.5277,VALID,0,VALID,20.1888,VALID,1,VALID,0.489453,
2010-09-28, 01:41:04,VALID,917.561,VALID,0,VALID,96.5734,VALID,0,VALID,20.2278,VALID,1,VALID,0,
2010-09-28, 01:42:04,VALID,917.574,VALID,0,VALID,96.5811,VALID,0,VALID,20.2278,VALID,1,VALID,0.0726563,
2010-09-28, 01:43:04,VALID,917.545,VALID,0,VALID,96.5811,VALID,0,VALID,20.2458,VALID,1,VALID,0.166016,
2010-09-28, 01:44:04,VALID,917.558,VALID,0,VALID,96.5963,VALID,0,VALID,20.2863,VALID,1,VALID,0.0953125,
2010-09-28, 01:45:04,VALID,917.564,VALID,0,VALID,96.5811,VALID,0,VALID,20.2863,VALID,1,VALID,0.05625,
2010-09-28, 01:46:04,VALID,917.531,VALID,0,VALID,96.5734,VALID,0,VALID,20.2848,VALID,1,VALID,0,
2010-09-28, 01:47:04,VALID,917.564,VALID,0,VALID,96.5734,VALID,0,VALID,20.2863,VALID,1,VALID,0.203516,
2010-09-28, 01:48:04,VALID,917.572,VALID,0,VALID,96.4743,VALID,0,VALID,20.2668,VALID,1,VALID,0.49375,
2010-09-28, 01:49:04,VALID,917.565,VALID,0,VALID,96.4133,VALID,0,VALID,20.2278,VALID,1,VALID,0.446094,
2010-09-28, 01:50:04,VALID,917.6,VALID,0,VALID,96.3295,VALID,0,VALID,20.1888,VALID,1,VALID,0.55,
2010-09-28, 01:51:04,VALID,917.571,VALID,0,VALID,96.2837,VALID,0,VALID,20.1888,VALID,1,VALID,0.4125,
2010-09-28, 01:52:04,VALID,917.559,VALID,0,VALID,96.1999,VALID,0,VALID,20.1693,VALID,1,VALID,0.523828,
2010-09-28, 01:53:04,VALID,917.572,VALID,0,VALID,96.1389,VALID,0,VALID,20.1498,VALID,1,VALID,0.21875,
2010-09-28, 01:54:04,VALID,917.55,VALID,0,VALID,96.1084,VALID,0,VALID,20.1498,VALID,1,VALID,0.123438,
2010-09-28, 01:55:04,VALID,917.53,VALID,0,VALID,96.0703,VALID,0,VALID,20.1288,VALID,1,VALID,0.522656,
2010-09-28, 01:56:04,VALID,917.55,VALID,0,VALID,96.0398,VALID,0,VALID,20.1498,VALID,1,VALID,0.430078,
2010-09-28, 01:57:04,VALID,917.497,VALID,0,VALID,96.0169,VALID,0,VALID,20.1498,VALID,1,VALID,0.386328,
2010-09-28, 01:58:04,VALID,917.477,VALID,0,VALID,95.9941,VALID,0,VALID,20.1498,VALID,1,VALID,0.378906,
2010-09-28, 01:59:04,VALID,917.466,VALID,0,VALID,95.9331,VALID,0,VALID,20.1498,VALID,1,VALID,0.387891,
2010-09-28, 02:00:04,VALID,917.484,VALID,0,VALID,95.8492,VALID,0,VALID,20.1303,VALID,1,VALID,0.531641,
2010-09-28, 02:01:04,VALID,917.473,VALID,0,VALID,95.8645,VALID,0,VALID,20.0898,VALID,1,VALID,0.542578,
2010-09-28, 02:02:04,VALID,917.453,VALID,0,VALID,95.8721,VALID,0,VALID,20.0718,VALID,1,VALID,0.317969,
2010-09-28, 02:03:04,VALID,917.445,VALID,0,VALID,95.9178,VALID,0,VALID,20.0718,VALID,1,VALID,0.451172,
2010-09-28, 02:04:04,VALID,917.437,VALID,0,VALID,95.9864,VALID,0,VALID,20.0523,VALID,1,VALID,0.430859,
2010-09-28, 02:05:04,VALID,917.439,VALID,0,VALID,96.0627,VALID,0,VALID,20.0523,VALID,1,VALID,0.300391,
2010-09-28, 02:06:04,VALID,917.382,VALID,0,VALID,96.1236,VALID,0,VALID,20.0523,VALID,1,VALID,0.0394531,
2010-09-28, 02:07:04,VALID,917.369,VALID,0,VALID,96.1389,VALID,0,VALID,20.0523,VALID,1,VALID,0.347656,
2010-09-28, 02:08:04,VALID,917.366,VALID,0,VALID,96.1389,VALID,0,VALID,20.0133,VALID,1,VALID,0.453906,
2010-09-28, 02:09:04,VALID,917.334,VALID,0,VALID,96.116,VALID,0,VALID,19.9743,VALID,1,VALID,0.571875,
2010-09-28, 02:10:04,VALID,917.336,VALID,0,VALID,96.1541,VALID,0,VALID,19.9743,VALID,1,VALID,0.524219,
2010-09-28, 02:11:04,VALID,917.334,VALID,0,VALID,96.1694,VALID,0,VALID,19.9143,VALID,1,VALID,0.536719,
2010-09-28, 02:12:04,VALID,917.3,VALID,0,VALID,96.1389,VALID,0,VALID,19.8963,VALID,1,VALID,0.447656,
2010-09-28, 02:13:04,VALID,917.294,VALID,0,VALID,96.1236,VALID,0,VALID,19.8558,VALID,1,VALID,0.393359,
2010-09-28, 02:14:04,VALID,917.274,VALID,0,VALID,96.1313,VALID,0.107441,VALID,19.8573,VALID,1,VALID,0.368359,
2010-09-28, 02:15:04,VALID,917.269,VALID,0,VALID,96.1465,VALID,0,VALID,19.8168,VALID,1,VALID,0.375391,
2010-09-28, 02:16:04,VALID,917.227,VALID,0,VALID,96.1541,VALID,0.107441,VALID,19.7988,VALID,1,VALID,0.25,
2010-09-28, 02:17:04,VALID,917.239,VALID,0,VALID,96.1313,VALID,0,VALID,19.7793,VALID,1,VALID,0,
2010-09-28, 02:18:04,VALID,917.198,VALID,0,VALID,96.1618,VALID,0.107441,VALID,19.7583,VALID,1,VALID,0,
2010-09-28, 02:19:04,VALID,917.13,VALID,0,VALID,96.2456,VALID,0,VALID,19.7598,VALID,1,VALID,0,
2010-09-28, 02:20:04,VALID,917.146,VALID,0,VALID,96.2228,VALID,0,VALID,19.7598,VALID,1,VALID,0.113281,
2010-09-28, 02:21:04,VALID,917.118,VALID,0,VALID,96.3295,VALID,0,VALID,19.7793,VALID,1,VALID,0.198047,
2010-09-28, 02:22:04,VALID,917.112,VALID,0,VALID,96.3752,VALID,0,VALID,19.7988,VALID,1,VALID,0.413672,
2010-09-28, 02:23:04,VALID,917.071,VALID,0,VALID,96.4591,VALID,0,VALID,19.8573,VALID,1,VALID,0.400781,
2010-09-28, 02:24:04,VALID,917.072,VALID,0,VALID,96.5277,VALID,0,VALID,19.8963,VALID,1,VALID,0.481641,
2010-09-28, 02:25:04,VALID,917.064,VALID,0,VALID,96.5429,VALID,0,VALID,19.9158,VALID,343,VALID,0.675,
2010-09-28, 02:26:04,VALID,917.059,VALID,0,VALID,96.5124,VALID,0,VALID,19.8963,VALID,341,VALID,0.497656,
2010-09-28, 02:27:04,VALID,917.057,VALID,0,VALID,96.4819,VALID,0,VALID,19.8963,VALID,341,VALID,0.401563,
2010-09-28, 02:28:04,VALID,917.01,VALID,0,VALID,96.5506,VALID,0,VALID,19.8963,VALID,341,VALID,0.310156,
2010-09-28, 02:29:04,VALID,917.004,VALID,0,VALID,96.5124,VALID,0,VALID,19.8963,VALID,341,VALID,0.191406,
2010-09-28, 02:30:04,VALID,916.968,VALID,0,VALID,96.5277,VALID,0,VALID,19.8768,VALID,341,VALID,0,
2010-09-28, 02:31:04,VALID,916.947,VALID,0,VALID,96.5811,VALID,0,VALID,19.9173,VALID,341,VALID,0.0121094,
2010-09-28, 02:32:04,VALID,916.926,VALID,0,VALID,96.5963,VALID,0,VALID,19.9158,VALID,341,VALID,0,
2010-09-28, 02:33:04,VALID,916.938,VALID,0,VALID,96.4896,VALID,0,VALID,19.8963,VALID,341,VALID,0.398438,
2010-09-28, 02:34:04,VALID,916.922,VALID,0,VALID,96.5277,VALID,0,VALID,19.8768,VALID,341,VALID,0.267969,
2010-09-28, 02:35:04,VALID,916.905,VALID,0,VALID,96.5201,VALID,0,VALID,19.8963,VALID,341,VALID,0,
2010-09-28, 02:36:04,VALID,916.908,VALID,0,VALID,96.5124,VALID,0,VALID,19.8768,VALID,341,VALID,0,
2010-09-28, 02:37:04,VALID,916.906,VALID,0,VALID,96.4743,VALID,0,VALID,19.8573,VALID,341,VALID,0.0410156,
2010-09-28, 02:38:04,VALID,916.889,VALID,0,VALID,96.4743,VALID,0,VALID,19.8573,VALID,341,VALID,0,
2010-09-28, 02:39:04,VALID,916.888,VALID,0,VALID,96.5048,VALID,0,VALID,19.8378,VALID,341,VALID,0.337109,
2010-09-28, 02:40:04,VALID,916.89,VALID,0,VALID,96.5201,VALID,0,VALID,19.8378,VALID,341,VALID,0.386328,
2010-09-28, 02:41:04,VALID,916.872,VALID,0,VALID,96.4438,VALID,0,VALID,19.8198,VALID,341,VALID,0.277344,
2010-09-28, 02:42:04,VALID,916.878,VALID,0,VALID,96.5277,VALID,0,VALID,19.8183,VALID,341,VALID,0.329688,
2010-09-28, 02:43:04,VALID,916.862,VALID,0,VALID,96.4972,VALID,0,VALID,19.8183,VALID,341,VALID,0.312109,
2010-09-28, 02:44:04,VALID,916.89,VALID,0,VALID,96.5506,VALID,0,VALID,19.7988,VALID,341,VALID,0,
2010-09-28, 02:45:04,VALID,916.855,VALID,0,VALID,96.4896,VALID,0,VALID,19.8003,VALID,341,VALID,0,
2010-09-28, 02:46:04,VALID,916.859,VALID,0,VALID,96.5658,VALID,0,VALID,19.7793,VALID,341,VALID,0,
2010-09-28, 02:47:04,VALID,916.842,VALID,0,VALID,96.5811,VALID,0,VALID,19.7793,VALID,341,VALID,0.084375,
2010-09-28, 02:48:04,VALID,916.82,VALID,0,VALID,96.6039,VALID,0,VALID,19.7598,VALID,341,VALID,0.564062,
2010-09-28, 02:49:04,VALID,916.78,VALID,0,VALID,96.6497,VALID,0,VALID,19.7793,VALID,341,VALID,0.457812,
2010-09-28, 02:50:04,VALID,916.813,VALID,0,VALID,96.6573,VALID,0,VALID,19.7598,VALID,341,VALID,0.332031,
2010-09-28, 02:51:04,VALID,916.779,VALID,0,VALID,96.6954,VALID,0.107441,VALID,19.7583,VALID,341,VALID,0.278906,
2010-09-28, 02:52:04,VALID,916.746,VALID,0,VALID,96.6725,VALID,0,VALID,19.7598,VALID,341,VALID,0.452344,
2010-09-28, 02:53:04,VALID,916.725,VALID,0,VALID,96.7107,VALID,0,VALID,19.7598,VALID,341,VALID,0.344141,
2010-09-28, 02:54:04,VALID,916.717,VALID,0,VALID,96.7335,VALID,0,VALID,19.7793,VALID,341,VALID,0.398828,
2010-09-28, 02:55:04,VALID,916.706,VALID,0,VALID,96.7183,VALID,0,VALID,19.7583,VALID,341,VALID,0.201953,
2010-09-28, 02:56:04,VALID,916.75,VALID,0,VALID,96.7564,VALID,0,VALID,19.7598,VALID,341,VALID,0.219922,
2010-09-28, 02:57:04,VALID,916.726,VALID,0,VALID,96.703,VALID,0,VALID,19.7598,VALID,341,VALID,0.347656,
2010-09-28, 02:58:04,VALID,916.718,VALID,0,VALID,96.764,VALID,0,VALID,19.7808,VALID,341,VALID,0.269922,
2010-09-28, 02:59:04,VALID,916.708,VALID,0,VALID,96.7793,VALID,0.107441,VALID,19.7598,VALID,341,VALID,0.254687,
2010-09-28, 03:00:04,VALID,916.7,VALID,0,VALID,96.7793,VALID,0,VALID,19.7793,VALID,341,VALID,0.469141,
2010-09-28, 03:01:04,VALID,916.722,VALID,0,VALID,96.7564,VALID,0,VALID,19.7583,VALID,341,VALID,0.703516,
2010-09-28, 03:02:04,VALID,916.737,VALID,0,VALID,96.7564,VALID,0,VALID,19.7598,VALID,341,VALID,0.492188,
2010-09-28, 03:03:04,VALID,916.702,VALID,0,VALID,96.7793,VALID,0,VALID,19.7598,VALID,341,VALID,0.294141,
2010-09-28, 03:04:04,VALID,916.734,VALID,0,VALID,96.7564,VALID,0,VALID,19.7403,VALID,341,VALID,0.248437,
2010-09-28, 03:05:04,VALID,916.729,VALID,0,VALID,96.7488,VALID,0,VALID,19.7403,VALID,341,VALID,0.25625,
2010-09-28, 03:06:04,VALID,916.715,VALID,0,VALID,96.6954,VALID,0.107441,VALID,19.7403,VALID,341,VALID,0.257813,
2010-09-28, 03:07:04,VALID,916.717,VALID,0,VALID,96.6878,VALID,0.107441,VALID,19.6803,VALID,341,VALID,0.181641,
2010-09-28, 03:08:04,VALID,916.717,VALID,0,VALID,96.703,VALID,0.107441,VALID,19.6818,VALID,341,VALID,0.264453,
2010-09-28, 03:09:04,VALID,916.699,VALID,0,VALID,96.6954,VALID,0.107441,VALID,19.6818,VALID,341,VALID,0.208203,
2010-09-28, 03:10:04,VALID,916.704,VALID,0,VALID,96.7183,VALID,0,VALID,19.6818,VALID,341,VALID,0,
2010-09-28, 03:11:04,VALID,916.7,VALID,0,VALID,96.7183,VALID,0,VALID,19.6623,VALID,341,VALID,0,
2010-09-28, 03:12:04,VALID,916.714,VALID,0,VALID,96.6954,VALID,0,VALID,19.6833,VALID,341,VALID,0,
2010-09-28, 03:13:04,VALID,916.672,VALID,0,VALID,96.6725,VALID,0,VALID,19.6623,VALID,341,VALID,0.271094,
2010-09-28, 03:14:04,VALID,916.635,VALID,0,VALID,96.6649,VALID,0,VALID,19.6833,VALID,341,VALID,0.252344,
2010-09-28, 03:15:04,VALID,916.649,VALID,0,VALID,96.6649,VALID,0,VALID,19.6833,VALID,341,VALID,0.474609,
2010-09-28, 03:16:04,VALID,916.666,VALID,0,VALID,96.6497,VALID,0,VALID,19.6833,VALID,341,VALID,0.259766,
2010-09-28, 03:17:04,VALID,916.637,VALID,0,VALID,96.5506,VALID,0,VALID,19.6848,VALID,341,VALID,0.407422,
2010-09-28, 03:18:04,VALID,916.639,VALID,0,VALID,96.5658,VALID,0,VALID,19.6638,VALID,341,VALID,0.573438,
2010-09-28, 03:19:04,VALID,916.613,VALID,0,VALID,96.6115,VALID,0,VALID,19.6818,VALID,341,VALID,0.391406,
2010-09-28, 03:20:04,VALID,916.599,VALID,0,VALID,96.642,VALID,0,VALID,19.7223,VALID,341,VALID,0.203125,
2010-09-28, 03:21:04,VALID,916.583,VALID,0,VALID,96.642,VALID,0,VALID,19.7013,VALID,341,VALID,0,
2010-09-28, 03:22:04,VALID,916.585,VALID,0,VALID,96.703,VALID,0,VALID,19.7208,VALID,341,VALID,0.152734,
2010-09-28, 03:23:04,VALID,916.585,VALID,0,VALID,96.6649,VALID,0,VALID,19.7223,VALID,341,VALID,0,
2010-09-28, 03:24:04,VALID,916.579,VALID,0,VALID,96.6497,VALID,0,VALID,19.7223,VALID,341,VALID,0.567187,
2010-09-28, 03:25:04,VALID,916.588,VALID,0,VALID,96.642,VALID,0,VALID,19.7223,VALID,341,VALID,0.548047,
2010-09-28, 03:26:04,VALID,916.586,VALID,0,VALID,96.6573,VALID,0,VALID,19.7223,VALID,341,VALID,0.228906,
2010-09-28, 03:27:04,VALID,916.597,VALID,0,VALID,96.5506,VALID,0,VALID,19.6818,VALID,341,VALID,0.135156,
2010-09-28, 03:28:04,VALID,916.593,VALID,0,VALID,96.5582,VALID,0,VALID,19.6803,VALID,341,VALID,0.207422,
2010-09-28, 03:29:04,VALID,916.559,VALID,0,VALID,96.5734,VALID,0,VALID,19.6818,VALID,341,VALID,0,
2010-09-28, 03:30:04,VALID,916.586,VALID,0,VALID,96.4743,VALID,0,VALID,19.6428,VALID,341,VALID,0,
2010-09-28, 03:31:04,VALID,916.579,VALID,0,VALID,96.4438,VALID,0,VALID,19.6233,VALID,341,VALID,0,
2010-09-28, 03:32:04,VALID,916.559,VALID,0,VALID,96.4362,VALID,0.107441,VALID,19.5843,VALID,341,VALID,0,
2010-09-28, 03:33:04,VALID,916.585,VALID,0,VALID,96.4057,VALID,0.107441,VALID,19.5648,VALID,341,VALID,0.218359,
2010-09-28, 03:34:04,VALID,916.567,VALID,0,VALID,96.3524,VALID,0,VALID,19.5453,VALID,341,VALID,0,
2010-09-28, 03:35:04,VALID,916.56,VALID,0,VALID,96.3752,VALID,0.107441,VALID,19.5453,VALID,341,VALID,0,
2010-09-28, 03:36:04,VALID,916.534,VALID,0,VALID,96.4133,VALID,0.107441,VALID,19.5453,VALID,341,VALID,0,
2010-09-28, 03:37:04,VALID,916.529,VALID,0,VALID,96.4743,VALID,0,VALID,19.5648,VALID,341,VALID,0.0796875,
2010-09-28, 03:38:04,VALID,916.511,VALID,0,VALID,96.5201,VALID,0.107441,VALID,19.5828,VALID,341,VALID,0.0597656,
2010-09-28, 03:39:04,VALID,916.501,VALID,0,VALID,96.5658,VALID,0,VALID,19.6233,VALID,341,VALID,0,
2010-09-28, 03:40:04,VALID,916.468,VALID,0,VALID,96.5506,VALID,0,VALID,19.6233,VALID,341,VALID,0.295703,
2010-09-28, 03:41:04,VALID,916.455,VALID,0,VALID,96.4362,VALID,0,VALID,19.5843,VALID,341,VALID,0.123438,
2010-09-28, 03:42:04,VALID,916.45,VALID,0,VALID,96.3981,VALID,0,VALID,19.5843,VALID,341,VALID,0.186328,
2010-09-28, 03:43:04,VALID,916.443,VALID,0,VALID,96.3142,VALID,0,VALID,19.5453,VALID,341,VALID,0.369531,
2010-09-28, 03:44:04,VALID,916.466,VALID,0,VALID,96.2685,VALID,0,VALID,19.5063,VALID,341,VALID,0.534375,
2010-09-28, 03:45:04,VALID,916.452,VALID,0,VALID,96.2685,VALID,0,VALID,19.5258,VALID,341,VALID,0.526953,